EW7349 Weather Reports


Display with metric or nautical units.
time (UTC)temp
F
wind
direction
speed
MPH
gust
MPH
rain 1hr
in
rain 24hr
in
rain mn
in
humidity
%
barometer
mb
20260506165143 64 158 3.0 12.0 0.00 0.15 0.15 86 1009.4
20260506164643 64 234 3.0 11.0 0.00 0.15 0.15 87 1009.2
20260506164143 64 154 3.0 12.0 0.00 0.15 0.15 87 1009.4
20260506163643 63 143 3.0 15.0 0.00 0.15 0.15 87 1009.3
20260506163142 63 240 3.0 15.0 0.00 0.15 0.15 89 1009.3
20260506162643 63 185 3.0 12.0 0.00 0.15 0.15 89 1009.4
20260506162143 63 198 3.0 12.0 0.00 0.15 0.15 90 1009.4
20260506161646 63 89 3.0 9.0 0.00 0.15 0.15 92 1009.6
20260506161144 62 181 3.0 11.0 0.00 0.15 0.15 91 1009.5
20260506160909 62 221 3.0 11.0 0.00 0.15 0.15 91 1009.5
20260506160145 61 185 3.0 13.0 0.00 0.15 0.15 91 1009.6
20260506155640 62 240 2.0 13.0 0.00 0.15 0.15 92 1009.6
20260506155133 62 173 2.0 11.0 0.01 0.15 0.15 92 1009.4
20260506154627 62 254 3.0 8.0 0.01 0.15 0.15 92 1009.6
20260506154123 62 233 3.0 8.0 0.01 0.15 0.15 92 1009.6
20260506153623 62 242 2.0 8.0 0.01 0.15 0.15 92 1009.7
20260506153122 62 220 2.0 8.0 0.03 0.15 0.15 93 1009.6
20260506152621 62 101 2.0 10.0 0.04 0.15 0.15 93 1009.6
20260506152120 61 188 3.0 10.0 0.05 0.15 0.15 93 1009.6
20260506151836 61 294 2.0 10.0 0.07 0.15 0.15 93 1009.7
20260506151336 61 136 2.0 9.0 0.08 0.15 0.15 94 1009.6
20260506150836 61 137 3.0 12.0 0.09 0.15 0.15 94 1009.5
20260506150113 61 209 3.0 12.0 0.09 0.15 0.15 94 1009.7
20260506145843 60 230 2.0 6.0 0.09 0.15 0.15 93 1009.9
20260506145114 60 191 1.0 6.0 0.08 0.14 0.14 93 1009.9
20260506145031 60 97 2.0 7.0 0.08 0.14 0.14 93 1010.0
20260506144701 60 294 1.0 7.0 0.08 0.14 0.14 93 1009.9
20260506143610 60 139 2.0 7.0 0.08 0.14 0.14 92 1010.1
20260506143107 61 229 2.0 7.0 0.07 0.12 0.12 91 1010.1
20260506142608 61 132 2.0 6.0 0.07 0.11 0.11 91 1010.2
20260506142105 61 200 2.0 6.0 0.06 0.10 0.10 91 1010.3
20260506141606 61 215 1.0 5.0 0.05 0.08 0.08 91 1010.3
20260506141100 61 110 1.0 5.0 0.04 0.06 0.06 91 1010.2
20260506140554 61 206 1.0 7.0 0.05 0.06 0.06 91 1010.1
20260506140048 61 291 1.0 7.0 0.05 0.06 0.06 90 1010.1
20260506135816 61 120 0.0 4.0 0.05 0.06 0.06 89 1010.1
20260506135048 61 156 0.0 2.0 0.06 0.06 0.06 89 1010.0
20260506134545 61 125 1.0 3.0 0.06 0.06 0.06 88 1010.0
20260506134044 61 153 1.0 6.0 0.06 0.06 0.06 88 1010.1
20260506133546 61 152 1.0 6.0 0.06 0.06 0.06 87 1010.2
20260506133045 61 78 0.0 3.0 0.05 0.05 0.05 87 1010.3
20260506132545 61 109 0.0 3.0 0.04 0.04 0.04 87 1010.2
20260506132044 62 173 1.0 3.0 0.04 0.04 0.04 86 1010.1
20260506131545 62 109 1.0 7.0 0.03 0.03 0.03 86 1010.2
20260506131046 62 131 1.0 7.0 0.02 0.02 0.02 85 1010.4
20260506130540 62 195 1.0 4.0 0.01 0.01 0.01 85 1010.6
20260506130301 62 257 1.0 6.0 0.01 0.01 0.01 85 1010.4
20260506125540 62 221 1.0 6.0 0.01 0.01 0.01 84 1010.2
20260506125041 62 123 1.0 6.0 0.00 0.00 0.00 83 1010.3
20260506124542 63 221 1.0 6.0 0.00 0.00 0.00 83 1010.3
20260506124042 63 219 1.0 4.0 0.00 0.00 0.00 83 1010.2
20260506123802 63 137 1.0 4.0 0.00 0.00 0.00 83 1010.1
20260506123040 63 53 1.0 4.0 0.00 0.00 0.00 82 1010.0
20260506122543 63 209 1.0 4.0 0.00 0.00 0.00 82 1009.9
20260506122307 63 101 1.0 3.0 0.00 0.00 0.00 82 1010.0
20260506121541 63 202 1.0 3.0 0.00 0.00 0.00 81 1010.0
20260506121531 64 87 1.0 4.0 0.00 0.00 0.00 81 1010.0
20260506120541 64 222 1.0 4.0 0.00 0.00 0.00 80 1009.8
20260506120527 64 113 1.0 5.0 0.00 0.00 0.00 80 1009.9
20260506115810 64 130 1.0 5.0 0.00 0.00 0.00 79 1010.1
20260506115041 64 126 1.0 8.0 0.00 0.00 0.00 78 1010.2
20260506114540 64 132 1.0 8.0 0.00 0.00 0.00 77 1010.3
20260506114043 64 190 2.0 7.0 0.00 0.00 0.00 76 1010.3
20260506113535 65 277 2.0 7.0 0.00 0.00 0.00 76 1010.3
20260506113030 65 188 1.0 6.0 0.00 0.00 0.00 76 1010.2
20260506112523 65 163 2.0 7.0 0.00 0.00 0.00 75 1010.1
20260506112017 65 269 3.0 9.0 0.00 0.00 0.00 74 1010.0
20260506111511 65 74 2.0 9.0 0.00 0.00 0.00 73 1009.9
20260506111010 65 281 2.0 10.0 0.00 0.00 0.00 74 1009.8
20260506110734 65 81 3.0 10.0 0.00 0.00 0.00 73 1009.7
20260506110230 65 298 2.0 7.0 0.00 0.00 0.00 73 1009.6
20260506105506 65 232 2.0 8.0 0.00 0.00 0.00 73 1009.6
20260506105005 65 121 2.0 10.0 0.00 0.00 0.00 73 1009.6
20260506104504 65 63 2.0 10.0 0.00 0.00 0.00 73 1009.6
20260506104003 65 232 2.0 10.0 0.00 0.00 0.00 73 1009.6
20260506103502 65 143 2.0 12.0 0.00 0.00 0.00 73 1009.6
20260506103003 65 143 2.0 12.0 0.00 0.00 0.00 73 1009.5
20260506102505 65 207 3.0 12.0 0.00 0.00 0.00 73 1009.5
20260506102003 65 257 2.0 12.0 0.00 0.00 0.00 73 1009.5
20260506101502 65 132 2.0 9.0 0.00 0.00 0.00 72 1009.5
20260506101003 65 146 2.0 9.0 0.00 0.00 0.00 72 1009.5
20260506100500 65 223 2.0 10.0 0.00 0.00 0.00 72 1009.5
20260506100000 65 250 2.0 10.0 0.00 0.00 0.00 72 1009.6
20260506095502 65 200 2.0 9.0 0.00 0.00 0.00 72 1009.6
20260506095002 65 156 2.0 5.0 0.00 0.00 0.00 72 1009.5
20260506094455 65 115 2.0 7.0 0.00 0.00 0.00 72 1009.4
20260506094220 65 162 2.0 7.0 0.00 0.00 0.00 71 1009.5
20260506093443 65 179 2.0 5.0 0.00 0.00 0.00 71 1009.5
20260506092937 65 202 2.0 5.0 0.00 0.00 0.00 71 1009.6
20260506092431 65 175 2.0 9.0 0.00 0.00 0.00 71 1009.4
20260506091925 65 131 2.0 10.0 0.00 0.00 0.00 71 1009.4
20260506091419 65 115 2.0 10.0 0.00 0.00 0.00 70 1009.5
20260506090913 65 191 2.0 7.0 0.00 0.00 0.00 70 1009.5
20260506090406 65 262 2.0 7.0 0.00 0.00 0.00 70 1009.7
20260506085901 65 182 2.0 10.0 0.00 0.00 0.00 70 1009.7
20260506085619 66 288 2.0 10.0 0.00 0.00 0.00 70 1009.7
20260506085115 66 110 2.0 8.0 0.00 0.00 0.00 70 1009.8
20260506084344 66 128 3.0 10.0 0.00 0.00 0.00 69 1009.7
20260506083837 66 157 3.0 10.0 0.00 0.00 0.00 69 1009.7
20260506083331 66 191 2.0 7.0 0.00 0.00 0.00 69 1009.7
20260506083046 66 193 2.0 7.0 0.00 0.00 0.00 68 1009.8
20260506082805 66 245 2.0 10.0 0.00 0.00 0.00 68 1009.7
20260506081814 66 284 3.0 10.0 0.00 0.00 0.00 68 1009.7
20260506081757 66 241 2.0 10.0 0.00 0.00 0.00 67 1009.8
20260506080801 67 256 2.0 9.0 0.00 0.00 0.00 67 1009.8
20260506080255 67 96 2.0 9.0 0.00 0.00 0.00 67 1009.7
20260506073219 67 140 2.0 8.0 0.00 0.00 0.00 65 1009.8
20260506072714 67 18 2.0 8.0 0.00 0.00 0.00 65 1009.8
20260506072208 67 225 2.0 8.0 0.00 0.00 0.00 64 1009.8
20260506071701 68 119 2.0 8.0 0.00 0.00 0.00 64 1009.8
20260506071156 68 140 1.0 7.0 0.00 0.00 0.00 64 1009.8
20260506070656 68 103 2.0 10.0 0.00 0.00 0.00 63 1009.9
20260506070157 68 226 2.0 10.0 0.00 0.00 0.00 63 1009.9
20260506062150 68 212 2.0 7.0 0.00 0.00 0.00 62 1010.4
20260506061651 69 159 2.0 9.0 0.00 0.00 0.00 62 1010.3
20260506061148 69 248 2.0 9.0 0.00 0.00 0.00 61 1010.3
20260506060645 69 143 2.0 8.0 0.00 0.00 0.00 61 1010.3
20260506060146 69 205 2.0 8.0 0.00 0.00 0.00 61 1010.3
20260506051335 70 47 2.0 9.0 0.00 0.00 0.00 58 1010.6
20260506050605 70 115 2.0 9.0 0.00 0.00 0.00 58 1010.6
20260506044548 70 138 2.0 6.0 0.00 0.00 0.00 57 1010.8
20260506044048 70 139 2.0 4.0 0.00 0.00 0.00 57 1010.7
20260506043547 70 99 2.0 6.0 0.00 0.00 0.00 57 1010.6
20260506043048 70 102 2.0 7.0 0.00 0.00 0.00 56 1010.5
20260506042549 70 267 1.0 7.0 0.00 0.00 0.00 56 1010.7
20260506042048 71 302 2.0 8.0 0.00 0.00 0.00 55 1010.6
20260506041547 71 218 1.0 8.0 0.00 0.00 0.00 55 1010.6
20260506041536 71 58 1.0 4.0 0.00 0.00 0.00 55 1010.6
20260506040549 71 162 2.0 8.0 0.00 0.00 0.00 55 1010.7
20260506040316 71 148 2.0 8.0 0.00 0.00 0.00 55 1010.7
20260506035549 71 109 2.0 7.0 0.00 0.00 0.00 54 1010.6
20260506035048 71 155 2.0 7.0 0.00 0.00 0.00 55 1010.7
20260506034548 71 164 2.0 7.0 0.00 0.00 0.00 54 1010.6
20260506034048 71 169 2.0 8.0 0.00 0.00 0.00 54 1010.6
20260506033548 71 208 2.0 10.0 0.00 0.00 0.00 54 1010.5
20260506033050 71 161 2.0 10.0 0.00 0.00 0.00 54 1010.6
20260506032544 71 154 2.0 8.0 0.00 0.00 0.00 53 1010.6
20260506032038 71 144 2.0 4.0 0.00 0.00 0.00 53 1010.6
20260506031536 71 128 2.0 6.0 0.00 0.00 0.00 53 1010.6
20260506031038 71 115 1.0 6.0 0.00 0.00 0.00 52 1010.7
20260506030537 71 112 2.0 5.0 0.00 0.00 0.00 52 1010.7
20260506030035 71 191 1.0 8.0 0.00 0.00 0.00 52 1010.7
20260506025534 71 141 1.0 8.0 0.00 0.00 0.00 52 1010.7
20260506025034 71 126 1.0 8.0 0.00 0.00 0.00 51 1010.7
20260506024800 71 213 1.0 8.0 0.00 0.00 0.00 51 1010.8
20260506024035 71 130 1.0 3.0 0.00 0.00 0.00 50 1010.8
20260506023534 71 59 1.0 3.0 0.00 0.00 0.00 50 1010.8
20260506023254 71 74 0.0 3.0 0.00 0.00 0.00 49 1010.8
20260506022533 71 120 1.0 3.0 0.00 0.00 0.00 49 1010.8
20260506022251 71 98 1.0 4.0 0.00 0.00 0.00 49 1010.9
20260506021532 72 15 1.0 4.0 0.00 0.00 0.00 49 1010.9
20260506021030 72 216 1.0 4.0 0.00 0.00 0.00 48 1011.0
20260506020530 72 308 1.0 7.0 0.00 0.00 0.00 48 1011.0
20260506020030 72 148 1.0 7.0 0.00 0.00 0.00 47 1011.0
20260506015531 72 236 1.0 6.0 0.00 0.00 0.00 46 1010.9
20260506015030 72 286 1.0 6.0 0.00 0.00 0.00 46 1010.9
20260506014524 73 111 1.0 4.0 0.00 0.00 0.00 45 1010.8
20260506014017 73 128 1.0 5.0 0.00 0.00 0.00 44 1010.7
20260506013739 73 229 1.0 5.0 0.00 0.00 0.00 43 1010.7
20260506013005 73 111 1.0 3.0 0.00 0.00 0.00 43 1010.7
20260506012739 74 90 1.0 3.0 0.00 0.00 0.00 42 1010.5
20260506012004 74 128 1.0 2.0 0.00 0.00 0.00 42 1010.5
20260506011504 74 195 1.0 6.0 0.00 0.00 0.00 42 1010.5
20260506011004 74 250 1.0 6.0 0.00 0.00 0.00 41 1010.5
20260506010945 74 265 1.0 4.0 0.00 0.00 0.00 41 1010.3
20260506010004 74 271 2.0 7.0 0.00 0.00 0.00 41 1010.3
20260506005503 75 154 2.0 9.0 0.00 0.00 0.00 40 1010.3
20260506005003 75 208 1.0 9.0 0.00 0.00 0.00 40 1010.2
20260506004502 75 254 1.0 5.0 0.00 0.00 0.00 40 1010.1
20260506004223 75 156 1.0 5.0 0.00 0.00 0.00 39 1010.0
20260506003502 75 207 1.0 4.0 0.00 0.00 0.00 39 1010.0
20260506003004 76 248 1.0 5.0 0.00 0.00 0.00 38 1010.0
20260506002458 76 221 1.0 5.0 0.00 0.00 0.00 38 1009.9
20260506002437 76 127 1.0 8.0 0.00 0.00 0.00 37 1010.0
20260506001458 76 84 1.0 8.0 0.00 0.00 0.00 37 1009.9
20260506000958 76 137 1.0 4.0 0.00 0.00 0.00 37 1009.8
20260506000459 77 174 1.0 4.0 0.00 0.00 0.00 37 1009.7
20260505235958 77 167 1.0 4.0 0.00 0.00 0.00 36 1009.7
20260505235500 77 227 1.0 7.0 0.00 0.00 0.00 36 1009.7
20260505235000 78 243 2.0 7.0 0.00 0.00 0.00 35 1009.7
20260505234727 78 186 1.0 6.0 0.00 0.00 0.00 34 1009.6
20260505234221 78 251 1.0 5.0 0.00 0.00 0.00 35 1009.6
20260505233457 78 249 1.0 5.0 0.00 0.00 0.00 33 1009.6
20260505233451 79 17 1.0 5.0 0.00 0.00 0.00 33 1009.6
20260505232715 79 173 2.0 8.0 0.00 0.00 0.00 32 1009.6
20260505231958 79 176 3.0 8.0 0.00 0.00 0.00 31 1009.6
20260505231949 79 231 3.0 8.0 0.00 0.00 0.00 31 1009.7
20260505231000 80 174 2.0 8.0 0.00 0.00 0.00 31 1009.7
20260505230458 80 241 2.0 9.0 0.00 0.00 0.00 30 1009.6
20260505225959 80 249 3.0 9.0 0.00 0.00 0.00 30 1009.6
20260505225451 80 317 3.0 10.0 0.00 0.00 0.00 29 1009.7
20260505224944 80 254 3.0 15.0 0.00 0.00 0.00 28 1009.7
20260505224440 80 259 4.0 15.0 0.00 0.00 0.00 27 1009.7
20260505223934 80 183 3.0 14.0 0.00 0.00 0.00 28 1009.7
20260505223427 80 180 3.0 14.0 0.00 0.00 0.00 29 1009.7
20260505222922 80 167 2.0 8.0 0.00 0.00 0.00 32 1009.5
20260505222650 80 202 2.0 9.0 0.00 0.00 0.00 31 1009.5
20260505221909 80 300 2.0 9.0 0.00 0.00 0.00 31 1009.6
20260505221403 80 196 2.0 9.0 0.00 0.00 0.00 30 1009.5
20260505220900 80 298 2.0 9.0 0.00 0.00 0.00 31 1009.7
20260505220400 80 237 3.0 10.0 0.00 0.00 0.00 29 1009.6
20260505215859 80 127 4.0 10.0 0.00 0.00 0.00 29 1009.5
20260505215358 80 98 3.0 10.0 0.00 0.00 0.00 29 1009.4
20260505214900 80 196 4.0 14.0 0.00 0.00 0.00 29 1009.6
20260505214359 80 271 4.0 14.0 0.00 0.00 0.00 29 1009.5
20260505213858 80 266 3.0 16.0 0.00 0.00 0.00 28 1009.5
20260505213359 80 274 4.0 16.0 0.00 0.00 0.00 28 1009.5
20260505212859 81 333 4.0 12.0 0.00 0.00 0.00 28 1009.5
20260505212356 81 288 4.0 15.0 0.00 0.00 0.00 27 1009.4
20260505211857 82 205 4.0 17.0 0.00 0.00 0.00 28 1009.3
20260505211353 82 263 4.0 17.0 0.00 0.00 0.00 27 1009.4
20260505210853 82 153 4.0 10.0 0.00 0.00 0.00 29 1009.3
20260505210355 81 92 4.0 11.0 0.00 0.00 0.00 28 1009.4
20260505205854 82 261 3.0 11.0 0.00 0.00 0.00 29 1009.3
20260505205355 82 196 3.0 15.0 0.00 0.00 0.00 29 1009.4
20260505204854 82 216 4.0 15.0 0.00 0.00 0.00 28 1009.3
20260505204615 82 298 4.0 16.0 0.00 0.00 0.00 29 1009.4
20260505204107 83 154 3.0 16.0 0.00 0.00 0.00 29 1009.4
20260505203336 83 213 4.0 16.0 0.00 0.00 0.00 30 1009.4
20260505202830 83 286 4.0 16.0 0.00 0.00 0.00 29 1009.4
20260505202325 83 180 5.0 14.0 0.00 0.00 0.00 28 1009.4
20260505201818 83 271 5.0 15.0 0.00 0.00 0.00 27 1009.4
20260505201312 84 167 3.0 15.0 0.00 0.00 0.00 28 1009.4
20260505201044 85 259 4.0 18.0 0.00 0.00 0.00 28 1009.5
20260505200301 84 204 4.0 18.0 0.00 0.00 0.00 27 1009.4
20260505200019 84 256 4.0 16.0 0.00 0.00 0.00 28 1009.4
20260505195248 84 155 4.0 16.0 0.00 0.00 0.00 28 1009.5
20260505195004 84 207 4.0 16.0 0.00 0.00 0.00 30 1009.6
20260505194456 84 213 3.0 10.0 0.00 0.00 0.00 30 1009.5
20260505193958 85 140 3.0 10.0 0.00 0.00 0.00 31 1009.6
20260505193224 85 251 3.0 9.0 0.00 0.00 0.00 29 1009.7
20260505192719 86 215 3.0 9.0 0.00 0.00 0.00 28 1009.7
20260505192212 87 223 3.0 9.0 0.00 0.00 0.00 29 1009.7
20260505191707 85 248 3.0 17.0 0.00 0.00 0.00 29 1010.0
20260505191200 85 134 4.0 17.0 0.00 0.00 0.00 29 1009.8
20260505190655 85 222 4.0 13.0 0.00 0.00 0.00 28 1010.1
20260505190148 86 145 3.0 11.0 0.00 0.00 0.00 26 1010.1
20260505185643 85 164 4.0 12.0 0.00 0.00 0.00 30 1010.3
20260505185137 84 222 5.0 14.0 0.00 0.00 0.00 29 1010.3
20260505184631 84 161 4.0 14.0 0.00 0.00 0.00 29 1010.4
20260505184124 84 259 3.0 9.0 0.00 0.00 0.00 28 1010.5
20260505183618 85 134 4.0 11.0 0.00 0.00 0.00 29 1010.8
20260505183119 84 329 4.0 11.0 0.00 0.00 0.00 28 1010.6
20260505182619 85 182 4.0 11.0 0.00 0.00 0.00 30 1010.9
20260505182119 84 203 4.0 11.0 0.00 0.00 0.00 28 1010.7
20260505181619 85 250 3.0 8.0 0.00 0.00 0.00 29 1010.8
20260505181119 84 94 3.0 8.0 0.00 0.00 0.00 29 1010.9
20260505180620 84 126 3.0 10.0 0.00 0.00 0.00 29 1010.9
20260505180117 83 317 5.0 13.0 0.00 0.00 0.00 31 1010.9
20260505175619 83 178 4.0 13.0 0.00 0.00 0.00 30 1011.0
20260505175118 83 236 4.0 13.0 0.00 0.00 0.00 32 1011.2
20260505174618 83 198 4.0 13.0 0.00 0.00 0.00 31 1011.2
20260505174119 84 279 3.0 14.0 0.00 0.00 0.00 29 1011.1
20260505173834 84 246 4.0 14.0 0.00 0.00 0.00 30 1011.2
20260505173115 83 86 3.0 13.0 0.00 0.00 0.00 30 1011.0
20260505172617 85 217 2.0 10.0 0.00 0.00 0.00 30 1011.2
20260505172331 82 261 3.0 9.0 0.00 0.00 0.00 36 1011.1
20260505171617 82 42 3.0 11.0 0.00 0.00 0.00 33 1011.3
20260505171117 82 192 3.0 11.0 0.00 0.00 0.00 34 1011.2
20260505170611 82 240 4.0 13.0 0.00 0.00 0.00 34 1011.3
20260505170327 82 269 4.0 13.0 0.00 0.00 0.00 35 1011.4
20260505165820 82 240 3.0 10.0 0.00 0.00 0.00 36 1011.4